Tracking 26922 objects as of 1-Feb-2023
HD Live streaming from Space Station
objects crossing your sky now

NOAA 17 DEB

Track NOAA 17 DEB now!
10-day predictions


NORAD ID: 48725
Int'l Code: 2002-032BK
Perigee: 786.3 km
Apogee: 920.5 km
Inclination: 98.7 °
Period: 101.8 minutes
Semi major axis: 7224 km
RCS: Unknown
Launch date: June 24, 2002
Source: United States (US)
Launch site: AIR FORCE WESTERN TEST RANGE (AFWTR)

Note: This is SATELLITE DEBRIS
Your satellite tracking list
Your tracking list is empty




NASA's NSSDC Master Catalog

Two Line Element Set (TLE):
1 48725U 02032BJ  23030.58878710  .00006154  00000-0  31372-2 0  9999
2 48725  98.6942 325.1700 0092866 353.3991   6.5952 14.13846712 96377
Source of the keplerian elements: AFSPC